Regional Weather Roundup
Issued by NWS

Home | Current Version | Previous Version | Text Only | Print | Product List | Glossary Off
Versions: 1 2 3 4 5 6 7 8 9 10 11 12 13 14 15 16 17 18 19 20 21 22 23 24 25 26 27 28 29 30 31 32 33 34 35 36 37 38 39 40 41 42 43 44 45 46 47 48 49

000
ASUS45 KBOU 011407
RWRCO

WEATHER ROUNDUP FOR COLORADO
NATIONAL WEATHER SERVICE DENVER/BOULDER CO
800 AM MDT WED OCT 01 2014

NOTE: "FAIR" INDICATES FEW OR NO CLOUDS BELOW 12000 FEET WITH NO
SIGNIFICANT WEATHER AND/OR OBSTRUCTIONS TO VISIBILITY.

COZ001>005-013-030-031-011500-
...NORTHWEST COLORADO...

CITY           SKY/WX    TMP DP  RH WIND       PRES   REMARKS
CRAIG          RAIN      39  35  86 NW6       30.02R FOG
HAYDEN         CLOUDY    39  37  93 W9        30.00R
MEEKER         LGT RAIN  38  36  92 CALM      30.01S FOG
MOUNT WERNER   NOT AVBL
STEAMBOAT SPGS CLOUDY    40  40  98 CALM      29.99R
WALDEN         CLOUDY    36  34  93 E6        29.99S
$$

COZ006>008-011-011500-
...WEST CENTRAL VALLEYS...

CITY           SKY/WX    TMP DP  RH WIND       PRES   REMARKS
GRAND JUNCTION RAIN      45  44  97 W9        30.00R
MONTROSE       CLOUDY    45  43  93 W8        30.00R
EAGLE          CLOUDY    41  41 100 CALM      30.00S
RIFLE          LGT RAIN  44  40  85 W8        29.99R
DELTA          RAIN      50  47  90 CALM      29.96S
NUCLA          CLOUDY    45  41  87 NW3       30.01R
$$

COZ017>023-064>068-011500-
...SOUTHWEST COLORADO...

CITY           SKY/WX    TMP DP  RH WIND       PRES   REMARKS
DURANGO        CLOUDY    39  37  92 E7        30.02R
CORTEZ         CLOUDY    43  41  93 CALM      29.97R
PAGOSA SPRINGS PTSUNNY   38  36  93 CALM      30.07R
TELLURIDE      MOCLDY   N/A N/A N/A CALM      30.07S
WOLF CREEK PAS CLOUDY    28  27  93 SW15      30.19R WCI  17
$$

COZ009-010-012-014-032>034-037-058>063-011500-
...CENTRAL COLORADO...

CITY           SKY/WX    TMP DP  RH WIND       PRES   REMARKS
ASPEN          MOCLDY    40  34  79 SE12G18   29.97F
BUENA VISTA    PTSUNNY   35  31  85 NW3       30.03S
COPPER MTN     MOSUNNY   34  27  75 S13       30.12S WCI  25
BERTHOUD PASS  PTSUNNY   23  21  93 MISG      30.16S
COTTONWOOD PAS MOSUNNY   39  28  65 SE6       30.08S
GUNNISON       PTSUNNY   34  30  86 CALM      30.07R
KREMMLING      CLOUDY    37  36  93 E3        30.00F
LEADVILLE      MOSUNNY   30  27  88 CALM      30.05F
MONARCH PASS   FOG       28  27  93 MISG      30.25R VSB 1/2
SALIDA         CLOUDY    40  31  72 CALM      30.10R
SUNLIGHT       FOG       34  32  93 CALM      30.09R VSB 1/2
WILKERSON PASS NOT AVBL
$$

COZ069>075-011500-
...SAN LUIS VALLEY/SANGRE DE CRISTO MOUNTAINS...

CITY           SKY/WX    TMP DP  RH WIND       PRES   REMARKS
ALAMOSA        PTSUNNY   33  30  88 S5        30.05R WCI  29
LA VETA PASS   SUNNY     34  30  86 S7G17     30.12R WCI  28
SAGUACHE       PTSUNNY   36  32  87 CALM      30.07R
$$

COZ035-036-038>040-011500-
...NORTHERN COLORADO FRONT RANGE...

CITY           SKY/WX    TMP DP  RH WIND       PRES   REMARKS
DENVER INTL AP PTSUNNY   45  39  79 S7        29.91R
DMNS CITY PARK   N/A     48  38  69 S5        29.91S
AURORA         PTSUNNY   48  36  62 S8        29.93R
FRONT RANGE AP PTSUNNY   48  39  71 S6        29.92R
ERIE MUNI ARPT PTSUNNY   44  41  89 CALM      29.90S
BOULDER MUN AP PTSUNNY   46  39  76 SW3       29.91R
CENTENNIAL     CLOUDY    48  35  60 SE5       29.92R
BROOMFIELD     PTSUNNY   48  37  66 CALM      29.91S
FORT COLLINS   PTSUNNY   46  41  81 S5        29.91R
LONGMONT       PTSUNNY   46  40  81 CALM      29.91S
$$

COZ041-046-047-076>085-087-088-011500-
...PIKES PEAK/PALMER DIVIDE AND SOUTHERN FOOTHILLS...

CITY           SKY/WX    TMP DP  RH WIND       PRES   REMARKS
COLO. SPRINGS  CLOUDY    51  37  58 CALM      29.97R
A. F. ACADEMY  CLOUDY    44  32  63 N3        29.97R
ELLICOTT       NOT AVBL
FALCON         CLOUDY    46  33  61 CALM      29.99R
FORT CARSON    CLOUDY    49  36  61 N5        29.93S
LIMON          MOSUNNY   46  40  79 W7        29.93R
MONUMENT HILL  PTSUNNY   41  32  70 S7        29.97R
TRINIDAD       SUNNY     45  35  68 W5        29.95S
$$

COZ042>045-048>051-090-091-011500-
...NORTHEAST COLORADO...

CITY           SKY/WX    TMP DP  RH WIND       PRES   REMARKS
GREELEY ARPT   PTSUNNY   46  37  71 CALM      29.90S
AKRON          PTSUNNY   50  41  71 NW8       29.89R
BURLINGTON     SUNNY     51  43  74 NW5       29.88R
WRAY           SUNNY     50  46  87 W3        29.86R
STERLING       PTSUNNY   50  45  81 CALM      29.86S
HOLYOKE        SUNNY     55  43  62 NW6       29.86R
FORT MORGAN    PTSUNNY   47  43  86 CALM      29.90R
$$

COZ086-089-092>099-011500-
...SOUTHEAST COLORADO...

CITY           SKY/WX    TMP DP  RH WIND       PRES   REMARKS
PUEBLO         PTSUNNY   47  39  74 CALM      29.91R
LA JUNTA       SUNNY     53  37  54 W7        29.90R
LAMAR          SUNNY     51  47  86 W5        29.86R
SPRINGFIELD      N/A     56  38  50 NW16      29.87R
$$



USA.gov is the U.S. government's official web portal to all federal, state and local government web resources and services.